This demonstration page uses our WeatherBlox Daily Observations layout. Learn more.

Left ArrowRight Arrow

39.92423, -83.80882

Hourly Observations for March 11, 2017

Temp ( °F °C ) Dew Point ( °F °C ) Humidity (%) Winds ( mph kmh ) Pressure ( in mb ) Visibility ( mi km ) Precip ( " mm )
12:56 am 00:56 Clear 19 -7.2 11 -11.7 71 71 NNW 14 22 30.38 1029 10 16.0934 0 0
1:56 am 01:56 Clear 19 -7.2 7 -13.9 59 59 NNW 13 20 30.4 1029 10 16.0934 0 0
2:56 am 02:56 Clear 18 -7.8 7 -13.9 62 62 NNW 10 17 30.41 1030 10 16.0934 0 0
3:56 am 03:56 Clear 18 -7.8 7 -13.9 62 62 N 9 15 30.41 1030 10 16.0934 0 0
4:56 am 04:56 Clear 18 -7.8 7 -13.9 62 62 N 7 11 30.42 1030 10 16.0934 0 0
6:56 am 06:56 Sunny 17 -8.3 8 -13.3 68 68 WNW 5 7 30.45 1031 10 16.0934 0 0
7:56 am 07:56 Sunny 19 -7.2 8 -13.3 62 62 NW 6 9 30.46 1032 10 16.0934 0 0
8:56 am 08:56 Sunny 22 -5.6 9 -12.8 57 57 NW 8 13 30.46 1032 10 16.0934 0 0
9:56 am 09:56 Mostly Sunny 23 -5 11 -11.7 60 60 NNW 10 17 30.47 1032 10 16.0934 0 0
10:56 am 10:56 Mostly Cloudy 25 -3.9 12 -11.1 58 58 WNW 8 13 30.48 1032 10 16.0934 0 0
11:56 am 11:56 Partly Cloudy 27 -2.8 12 -11.1 53 53 N 10 17 30.46 1031 10 16.0934 0 0
12:56 pm 12:56 Mostly Cloudy 30 -1.1 13 -10.6 49 49 VRB 7 11 30.45 1031 10 16.0934 0 0
1:56 pm 13:56 Partly Cloudy 32 0 14 -10 47 47 NNW 7 11 30.42 1030 10 16.0934 0 0
2:56 pm 14:56 Sunny 32 0 12 -11.1 43 43 NW 9 15 30.41 1030 10 16.0934 0 0
3:56 pm 15:56 Sunny 32 0 11 -11.7 41 41 NW 6 9 30.41 1030 10 16.0934 0 0
4:56 pm 16:56 Sunny 32 0 12 -11.1 43 43 W 10 17 30.4 1029 10 16.0934 0 0
5:56 pm 17:56 Sunny 31 -0.6 13 -10.6 47 47 NW 9 15 30.39 1029 10 16.0934 0 0
6:56 pm 18:56 Clear 28 -2.2 12 -11.1 51 51 NW 6 9 30.4 1030 10 16.0934 0 0
7:56 pm 19:56 Clear 26 -3.3 12 -11.1 55 55 NW 6 9 30.41 1030 10 16.0934 0 0
8:56 pm 20:56 Clear 25 -3.9 12 -11.1 58 58 NW 5 7 30.41 1030 10 16.0934 0 0
9:56 pm 21:56 Clear 24 -4.4 12 -11.1 60 60 NW 6 9 30.42 1030 10 16.0934 0 0
10:56 pm 22:56 Clear 23 -5 12 -11.1 63 63 NW 7 11 30.43 1030 10 16.0934 0 0
11:56 pm 23:56 Mostly Clear 23 -5 13 -10.6 65 65 NNW 7 11 30.43 1030 10 16.0934 0 0

Powered by AerisWeather